sat.trackr.live / text

‹ back to catalog

STARLINK-5766

NORAD 56025 · 2023-042AR

PAYLOAD ACTIVE UNKNOWN

§ Identity

Operator
Country
US
Launch date
2023-03-24
Launch site
AFETR
Launch vehicle
Mass (kg)
RCS (m²)

Purposes: comms

External: N2YO · Heavens-Above · Gunter

§ Orbital elements

Epoch: 2026-05-24T22:43:55.098336Z

Period
94.27 min
Inclination
43.0027°
Eccentricity
0.0001011
Mean motion
15.27578162 rev/d
Perigee alt
482.4 km
Apogee alt
483.7 km
Semi-major
6,861.2 km
B*
9.7432e-6
RAAN
334.9362°
Arg perigee
254.2806°
Mean anomaly
105.7934°
Rev number
17,469

§ Raw data

STARLINK-57661 56025U 23042AR  26144.94716549  .00000006  00000+0  97432-5 0  99962 56025  43.0027 334.9362 0001011 254.2806 105.7934 15.27578162174696

JSON: /api/v1/satellites/56025 · /tle

For live sub-satellite position, see the globe view (requires WebGL).

§ Visibility from observer

Set your observer location to see the next 7 days of passes ≥ 10°. The values pass through the URL so the page stays shareable.

No JS? Fill the form by hand. The geolocation button needs JavaScript.